TimeMST,TemperatureF,Dew PointF,Humidity,Sea Level PressureIn,VisibilityMPH,Wind Direction,Wind SpeedMPH,Gust SpeedMPH,PrecipitationIn,Events,Conditions,WindDirDegrees,DateUTC
12:55 AM,26.1,17.1,69,30.26,10.0,WNW,8.1,-,N/A,,Overcast,300,2011-12-10 07:55:00
1:55 AM,24.1,17.1,75,30.27,10.0,West,9.2,-,N/A,,Clear,280,2011-12-10 08:55:00
2:55 AM,21.9,16.0,78,30.27,10.0,West,9.2,-,N/A,,Clear,280,2011-12-10 09:55:00
3:55 AM,23.0,16.0,74,30.27,10.0,West,11.5,-,N/A,,Clear,270,2011-12-10 10:55:00
4:55 AM,23.0,16.0,74,30.27,10.0,West,10.4,-,N/A,,Clear,280,2011-12-10 11:55:00
5:55 AM,23.0,17.1,78,30.29,10.0,West,10.4,-,N/A,,Clear,280,2011-12-10 12:55:00
6:55 AM,23.0,16.0,74,30.28,10.0,West,11.5,-,N/A,,Clear,280,2011-12-10 13:55:00
7:55 AM,26.1,18.0,71,30.28,10.0,West,11.5,-,N/A,,Clear,270,2011-12-10 14:55:00
8:55 AM,30.9,19.0,61,30.27,10.0,West,10.4,-,N/A,,Clear,270,2011-12-10 15:55:00
9:55 AM,37.0,21.0,52,30.26,10.0,WSW,15.0,-,N/A,,Clear,250,2011-12-10 16:55:00
10:55 AM,39.9,21.9,49,30.24,10.0,West,16.1,-,N/A,,Clear,270,2011-12-10 17:55:00
11:55 AM,43.0,25.0,49,30.19,10.0,West,11.5,-,N/A,,Clear,260,2011-12-10 18:55:00
12:55 PM,46.0,25.0,44,30.16,10.0,West,11.5,-,N/A,,Clear,270,2011-12-10 19:55:00
1:55 PM,48.9,26.1,41,30.13,10.0,SW,13.8,-,N/A,,Clear,230,2011-12-10 20:55:00
2:55 PM,48.9,26.1,41,30.12,10.0,SW,6.9,-,N/A,,Clear,230,2011-12-10 21:55:00
3:55 PM,46.0,26.1,46,30.10,10.0,SW,8.1,-,N/A,,Clear,220,2011-12-10 22:55:00
4:55 PM,39.9,25.0,55,30.08,10.0,North,-9999.0,-,N/A,,Clear,0,2011-12-10 23:55:00
5:55 PM,42.1,23.0,47,30.06,10.0,SW,8.1,-,N/A,,Clear,220,2011-12-11 00:55:00
6:55 PM,43.0,23.0,45,30.04,10.0,SSW,13.8,-,N/A,,Clear,210,2011-12-11 01:55:00
7:55 PM,41.0,21.9,47,30.02,10.0,WSW,5.8,-,N/A,,Clear,240,2011-12-11 02:55:00
8:55 PM,35.1,21.9,59,30.01,10.0,SSW,6.9,-,N/A,,Clear,210,2011-12-11 03:55:00
9:55 PM,33.1,21.9,64,29.99,10.0,Calm,Calm,-,N/A,,Clear,0,2011-12-11 04:55:00
10:55 PM,36.0,23.0,59,29.97,10.0,WSW,10.4,-,N/A,,Clear,250,2011-12-11 05:55:00
11:55 PM,34.0,21.9,61,29.96,10.0,West,8.1,-,N/A,,Clear,260,2011-12-11 06:55:00